Погода Торгай

Погода Торгай : погода сейчас, прогноз погоды и архив. Всё, что Вы хотите узнать о погоде Торгай!

Хотите узнать прогноз погоды Торгай? Тогда Вам сюда: Погода Торгай

Поиск расширенной информации на нашем сайте:

Другие новости

Новости СМИ2

Главная страница сайта

Новости сайта

03.07.2017

Напоминаем, что на нашем специализированном сайте Метеоцентр.Азия вы можете получить высокодетализированные автоматические прогнозы погоды по пунктам России, СНГ и мира в авиационном формате (включающие направление и скорость ветра, видимость, явления погоды, количество и форму облачности, нижнюю и верхнюю границу облачности).

Рекомендуем: Самая подробная информация акции на продукты питания на сайте.

Погода Торгай - сегодня

Время (UTC), дата Ветер
(°,м/с) 
Видим.   Явления Облачность Т
(°С)
Тd
(°С)
f(%) Тe
(°С)
Pmin
(гПа)
dP
(гПа)
Po
(мм)
O2
(г/м3)
Тmin Tmax R s Состояние
почвы
12 19.07.17 340 (С) 10 км    6/0 средняя 
[Ac lent]
+29.1 +6.7 24 +29  1015.1  -1  750  272           
15 19.07.17 290 (З) 10 км    3/0 средняя 
[Ac lent]
+28.2 +7.7 27 +28  1014.8  -0.3  750  273    +29.4       
18 19.07.17 320 (СЗ) н/о    3/0 средняя 
[Ac lent]
+21.8 +6.8 38 +22  1015.1  0.2  750  279    +29.4       
21 19.07.17 290 (З) н/о    ясно 
+19.6 +7.3 45 +21  1015.1  0.4  749  281           
00 20.07.17 290 (З) 10 км    6/0 
[Cu med, cong]
+20.4 +11.8 58 +24  1015.6  0.6  750  279           
03 20.07.17 020 (С) 10 км  в посл. час ливневой дождь  9/0 
[Cu med, cong]
+19.2 +13.6 70 +27  1015.6  -0.1  750  280           
06 20.07.17 020 (С) 10 км  {ливн. осадки}  3/3 1000 м 
[Cu hum]
+26.8 +12.8 42 +32  1015  -0.2  750  273  +19.2    0.3     
09 20.07.17 290 (З) 10 км    4/4 1000 м 
[Cu med, cong]
+31.1 +11.2 29 +34  1013.4  -4.1  749  269           
12 20.07.17 270 (З) 10 км    4/4 1000 м 
[Cu med, cong]
+32.6 +11.5 28 +33    -1.7        71     
15 20.07.17 270 (З) 10 км    3/0 средняя 
[Ac lent]
+31.4 +11.1 29 +34  1011  -0.6  747  268    +32.9       
18 20.07.17 290 (З) н/о    6/6 600 м кучево-дожд. 
[Cb cap]
+24.9 +10.2 40 +26  1012.3  748  274    +32.9       
21 20.07.17 290 (З) н/о    6/6 600 м кучево-дожд. 
[Cb cap]
+22.4 +9.9 45 +23  1013.2  0.6  748  277           
00 21.07.17 020 (С) 10 км  {ливн. осадки}  9/9 600 м кучево-дожд. 
[Cb cap]
+20.6 +13.8 65 +27  1011.9  -1.2  747  277           
06 21.07.17 070 (В) 10 км    6/6 1000 м 
[Sc]
+26.4 +14.2 47 +34  1012.9  -0.1  748  272  +20.6    0.0     
09 21.07.17 070 (В) 10 км    3/3 1000 м 
[Cu hum]
+30.3 +12.3 33 +35  1012  -0.7  748  269           
12 21.07.17 070 (В) 10 км    3/0 верхняя 
[Ci fib]
+32.2 +11.1 27 +35  1011.7  -0.8  747  267           
15 21.07.17 070 (В) 10 км    ясно 
+31 +11 29 +34  1010.5  -0.6  747  268    +32.5       
18 21.07.17 050 (СВ) н/о    ясно 
+26.3 +10.4 37 +28  1011.7  0.9  747  273    +32.5       
21 21.07.17 050 (СВ) н/о    ясно 
+24.9 +11.1 42 +28  1012.2  0.5  748  274           
00 22.07.17 070 (В) 10 км    ясно 
+21.5 +11.4 53 +25  1011.4  -1  747  277           
03 22.07.17 020 (С) 10 км    9/0 средняя 
[Ac lent]
+26.1 +11.1 39 +29  1011.5  0.3  752  274           
06 22.07.17 340 (С) 10 км  слаб. дождь  9/9 1000 м 
[Sc]
+31 +11.4 30 +34  1011.4  0.2  747  268  +21.5         
09 22.07.17 250 (З) 10 км  {дождь}  9/9 600 м кучево-дожд. 
[Cb cap]
+33.6 +14.7 32 +42  1010.1  -1.2  746  265           
12 22.07.17 250 (З) 10 км    9/9 1000 м 
[Sc]
+33.1 +13 30 +39  1009.4  -0.7  746  266           
15 22.07.17 200 (Ю) 10 км    4/0 верхняя 
[Ci fib]
+34 +12.5 27 +39  1008.6  -0.8  745  265    +34.3  0.0     
Время (UTC), дата Ветер
(°,м/с) 
Видим.   Явления Облачность Т
(°С)
Тd
(°С)
f(%) Тe
(°С)
Pmin
(гПа)
dP
(гПа)
Po
(мм)
O2
(г/м3)
Тmin Tmax R s Состояние
почвы

Для получения пояснительной информации подведите курсор к названию столбца.

ПОГОДА Торгай - архив

Всё, что Вы хотите узнать о погоде Торгай - удобно и подробно!

Выберите нужную дату (начиная с 1 января 2015* года) и нажмите кнопку "Найти".
Будут отображены архивные сводки погоды по пункту Торгай, начиная с указанной даты.


Отображать данные в формате CSV (для использования в таблицах Excel)


Внимание! Наш архив погоды предназначен исключительно для личного некоммерческого использования в познавательных целях. Если Вам необходимы официальные справки о состоянии погоды (для производственных, юридических, коммерческих и т.п. целей), обращайтесь в органы Росгидромета.

*Примечание: данная дата относится к архиву по метеостанциям СССР (Россия, СНГ, Балтия).
Архив по метеостанциям Зарубежной Европы и Азии (кроме Китая) хранится 10 дней, по другим регионам земного шара (Китай, Африка, Америка, Австралия, Океания) - 1 день.

Торгай - район местоположения метеостанции


Название, широта, долгота, высота метеостанции:
Торгай 49.7°ш. 63.5°д. 123 м над ур. моря [Казахстан]

Дополнительная информация

В oтличие oт бoльшинства пoгoдных сайтoв мы публикуем пoдрoбную метеoинфoрмацию в детальнoм прoфессиoнальнoм фoрмате.

Характеристики температуры и влажнoсти вoздуха измеряются на высoте 2 м в тени вдали oт зданий и деревьев.
Скoрoсть ветра измеряется на высoте 10 м (на урoвне рoста челoвека скoрoсть ветра ниже в 1.5-2 раза). Если метеoстанция нахoдится в гoрoде или в лесу, тo скoрoсть ветра занижена на 2-4 м/с пo сравнению с oткрытым местoм. Скoрoсть ветра над акватoриями крупных рек и oзёр, а также на вершинах хoлмoв на 2-5 м/с выше, чем в oбычных услoвиях.
Атмoсфернoе давление в разных тoчках местнoсти мoжет значительнo oтличаться oт давления на метеoстанции, в зависимoсти oт услoвий рельефа (при пoдъёме на 10 м давление пoнижается примернo на 1 мм рт.ст.).